Weather observations for the past three days for
King Salmon, King Salmon Airport
Imperial (Metric)
Date Time (akdt) Wind (mph) Vis. (mi.) Weather Sky Cond. Temperature (ºF) Relative Humidity Wind Chill (°F) Heat Index (°F) Pressure Precipitation (in)
Air Dwpt 6 hour altimeter (in) sea level (mb) 1 hr 3 hr 6 hr
Max. Min.
12 17:54 S 13 8.00 Overcast BKN041 OVC050 54 51.1 90% 29.58 1001.5 0.02
12 16:54 S 16 2.00 Light Rain Fog/Mist OVC039 53.1 51.1 93% 29.57 1001.3 0.04
12 15:54 SE 15 G 30 2.00 Light Rain Fog/Mist SCT032 OVC040 53.1 50 55.9 53.1 89% 29.56 1001.0 0.05 0.1
12 14:54 S 12 5.00 Light Rain BKN036 OVC047 54 48.9 83% 29.55 1000.7 0.04
12 13:54 S 17 G 29 10.00 Overcast OVC040 55.9 46.9 72% 29.54 1000.4
12 12:54 S 14 G 28 10.00 Overcast FEW030 OVC040 55.9 48 75% 29.54 1000.3 0.01
12 11:54 E 8 10.00 Overcast BKN044 OVC055 55.9 51.1 84% 29.54 1000.2 0.01
12 10:54 E 8 10.00 Overcast SCT050 OVC070 55 50 83% 29.55 1000.7
12 09:54 E 6 10.00 Overcast OVC043 53.1 50 53.1 50 89% 29.57 1001.3 0.08
12 08:54 SE 6 10.00 Light Rain OVC038 52 48.9 89% 29.6 1002.2
12 07:54 E 7 10.00 Overcast FEW042 OVC050 51.1 50 96% 29.61 1002.7
12 06:54 E 9 10.00 Light Rain OVC060 51.1 48 89% 29.62 1003.2 0.03 0.08
12 05:54 E 12 10.00 Light Rain FEW050 OVC070 50 48.9 96% 46 29.65 1004.0 0.01
12 04:54 E 8 10.00 Light Rain BKN060 OVC070 50 48.9 96% 47 29.68 1004.9 0.04
12 03:54 E 6 7.00 Light Rain OVC060 50 48.9 57 50 96% 48 29.71 1005.9 0.03 0.07
12 02:54 S 3 8.00 Light Rain BKN036 OVC048 50 48.9 96% 29.73 1006.7 0.03
12 01:54 SE 6 10.00 Light Rain BKN043 BKN050 OVC070 51.1 48 89% 29.75 1007.4 0.01
12 00:54 E 8 10.00 Overcast BKN049 BKN065 OVC100 54 46 75% 29.76 1007.6
11 23:54 SE 5 10.00 Overcast BKN050 OVC120 54 46.9 77% 29.77 1008.2
11 22:54 SE 6 10.00 Mostly Cloudy SCT070 BKN120 55.9 48 75% 29.79 1008.6
11 21:54 E 6 10.00 Overcast BKN035 OVC044 57 48.9 62.1 55.9 74% 29.8 1009.0
11 20:54 S 7 10.00 Overcast BKN038 BKN045 OVC065 57 48 72% 29.8 1009.2
11 19:54 S 9 10.00 Overcast BKN040 BKN055 OVC070 57 50 78% 29.81 1009.3
11 18:54 S 8 10.00 Overcast BKN041 OVC060 55.9 51.1 84% 29.81 1009.5
11 17:54 S 14 G 18 10.00 Overcast BKN042 OVC049 59 46.9 64% 29.82 1009.7
11 16:54 E 5 10.00 Overcast FEW045 BKN060 OVC075 60.1 46.9 62% 29.81 1009.5
11 15:54 S 6 10.00 Overcast OVC060 60.1 46.9 60.1 55 62% 29.82 1009.7
11 14:54 Vrbl 5 10.00 Overcast OVC055 59 46 62% 29.82 1009.8
11 13:54 S 3 10.00 Overcast BKN048 BKN070 OVC085 57.9 48 70% 29.83 1010.0
11 12:54 SW 5 10.00 Overcast OVC055 57 48 72% 29.83 1010.1
11 11:54 W 6 10.00 Overcast FEW026 OVC060 57 48 72% 29.82 1009.9
11 10:54 NW 3 10.00 Overcast OVC060 55 46.9 74% 29.82 1009.8
11 09:54 Calm 10.00 Overcast FEW033 OVC060 55 46.9 55 48.9 74% 29.81 1009.4
11 08:54 Calm 10.00 Overcast BKN025 BKN036 OVC060 53.1 48.9 86% 29.8 1009.1
11 07:54 NE 5 10.00 Mostly Cloudy FEW021 SCT038 BKN075 50 48.9 96% 49 29.78 1008.6
11 06:54 Calm 10.00 Overcast FEW044 OVC070 50 48 93% 29.77 1008.1
11 05:54 Calm 10.00 Light Rain BKN035 OVC060 50 48 93% 29.76 1007.7
11 04:54 W 3 10.00 Overcast BKN040 OVC049 50 48 93% 29.75 1007.4
11 03:54 SW 3 10.00 Overcast BKN050 OVC060 48.9 48 55.9 48.9 97% 29.74 1007.1
11 02:54 SE 3 10.00 Overcast OVC060 50 48 93% 29.73 1006.7
11 01:54 SE 9 10.00 Overcast SCT043 OVC055 52 45 77% 29.71 1006.2
11 00:54 E 7 10.00 Overcast BKN024 BKN035 OVC047 52 45 77% 29.7 1005.7
10 23:54 E 5 10.00 Mostly Cloudy BKN070 51.1 45 80% 29.69 1005.3
10 22:54 E 9 10.00 Overcast FEW055 OVC070 54 45 72% 29.67 1004.6
10 21:54 NE 5 10.00 Fair CLR 55.9 48 57.9 55 75% 29.65 1004.2
10 20:54 N 12 10.00 Overcast SCT029 OVC070 57 50 78% 29.65 1004.1
10 19:54 NW 8 10.00 Overcast BKN048 BKN060 OVC075 55.9 50 81% 29.64 1003.8
10 18:54 NW 8 10.00 Overcast BKN034 OVC060 55.9 50 81% 29.63 1003.4
10 17:54 W 10 10.00 Mostly Cloudy BKN080 57 51.1 81% 29.62 1003.0
10 16:54 NW 7 10.00 Overcast SCT031 BKN039 OVC075 57.9 51.1 78% 29.61 1002.7
10 15:54 W 8 10.00 Overcast FEW023 OVC070 57.9 50 59 52 75% 29.6 1002.4 0.01
10 14:54 SW 5 10.00 Overcast OVC060 57 48 72% 29.6 1002.3
10 13:54 W 3 10.00 Overcast OVC055 57 48.9 74% 29.6 1002.2
10 12:54 Calm 10.00 Mostly Cloudy BKN020 BKN050 57 48.9 74% 29.6 1002.2 0.01
10 11:54 Calm 10.00 Mostly Cloudy FEW013 BKN048 BKN055 55.9 50 81% 29.6 1002.2
10 10:54 Calm 10.00 Light Rain SCT014 OVC060 54 48.9 83% 29.59 1002.1 0.01
10 09:54 S 3 10.00 Light Rain OVC037 52 48.9 52 50 89% 29.58 1001.7 0.04
10 08:54 S 6 10.00 Overcast BKN039 OVC047 51.1 48.9 92% 29.57 1001.4 0.01
10 07:54 S 9 10.00 Overcast SCT049 BKN065 OVC080 50 48 93% 47 29.56 1001.0
10 06:54 SE 9 10.00 Overcast FEW055 OVC080 50 48 93% 47 29.55 1000.8 0.01 0.03
10 05:54 SE 12 10.00 Light Rain FEW037 OVC049 50 48 93% 46 29.55 1000.6 0.02
10 04:54 SE 7 10.00 Overcast OVC050 51.1 48.9 92% 29.55 1000.5
10 03:54 SE 7 10.00 Light Rain SCT043 BKN050 OVC070 52 48.9 55.9 52 89% 29.54 1000.3
10 02:54 SE 14 10.00 Overcast SCT046 OVC070 53.1 48 83% 29.55 1000.5
10 01:54 S 16 G 22 10.00 Overcast OVC065 53.1 48 83% 29.54 1000.4
10 00:54 S 16 10.00 Overcast OVC060 54 48 80% 29.54 1000.4
09 23:54 S 13 10.00 Partly Cloudy SCT065 54 48 80% 29.54 1000.4
09 22:54 S 10 10.00 Partly Cloudy SCT065 55 48 77% 29.55 1000.6
09 21:54 S 14 10.00 Mostly Cloudy SCT060 BKN120 55.9 48 60.1 55.9 75% 29.55 1000.8 0.01
09 20:54 S 13 10.00 Overcast BKN065 OVC120 57 48 72% 29.56 1000.9
09 19:54 S 10 10.00 Overcast BKN035 OVC120 57.9 48.9 72% 29.57 1001.1
09 18:54 E 7 10.00 Light Rain SCT022 BKN028 OVC034 55.9 54 93% 29.57 1001.4 0.01 0.01
Date Time (akdt) Wind (mph) Vis. (mi.) Weather Sky Cond. Air Dwpt Max. Min. Relative Humidity Wind Chill (°F) Heat Index (°F) altimeter (in) sea level (mb) 1 hr 3 hr 6 hr
6 hour
Temperature (ºF) Pressure Precipitation (in)